Track ORBCOMM FM 4 now! 10-day predictions ORBCOMM FM 4 is classified as:
1 25159U 98007C 22141.58362443 .00000984 00000-0 42486-3 0 9999 2 25159 107.9912 0.6205 0043610 39.4177 321.0121 14.30311298263510